When you browse on this site, cookies collect data to enhance your experience and personalize the content and advertising you see.
Visit our Privacy Policy to learn more. By continuing to use the site, you agree to this use of cookies and data.
  • In Österreich
  • Länderverzeichnis
  • Für 7 Tage
  • Wassertemperatur
  • Satellitenkarten
  • Wetterkarte
  • News
  • Widgets
  • user-avatar
    Anmelden

    Stündliche Wetter Superior

    Heute, 22 Juli, Montag

    Zeit Temperatur Niederschläge Wind Luftdruck Luftfeuchtigkeit
    00:00 +16°C° 0 mm 2 m/S 747 mmHg 62%
    01:00 +15°C° 0 mm 2 m/S 748 mmHg 64%
    02:00 +15°C° 0 mm 2 m/S 748 mmHg 66%
    03:00 +14°C° 0 mm 2 m/S 748 mmHg 69%
    04:00 +14°C° 0 mm 2 m/S 748 mmHg 70%
    05:00 +15°C° 0 mm 2 m/S 748 mmHg 71%
    06:00 +15°C° 0 mm 2 m/S 749 mmHg 72%
    07:00 +17°C° 0 mm 2 m/S 749 mmHg 65%
    08:00 +20°C° 0 mm 2 m/S 749 mmHg 58%
    09:00 +22°C° 0 mm 3 m/S 749 mmHg 51%
    10:00 +24°C° 0 mm 3 m/S 749 mmHg 48%
    11:00 +25°C° 0 mm 3 m/S 749 mmHg 44%
    12:00 +27°C° 0 mm 3 m/S 748 mmHg 41%
    13:00 +27°C° 0 mm 3 m/S 748 mmHg 41%
    14:00 +28°C° 0 mm 3 m/S 748 mmHg 40%
    15:00 +28°C° 0 mm 3 m/S 747 mmHg 40%
    16:00 +27°C° 0 mm 3 m/S 747 mmHg 45%
    17:00 +27°C° 0 mm 3 m/S 747 mmHg 51%
    18:00 +26°C° 0 mm 2 m/S 747 mmHg 56%
    19:00 +24°C° 0 mm 2 m/S 747 mmHg 59%
    20:00 +22°C° 0 mm 3 m/S 747 mmHg 62%
    21:00 +21°C° 0 mm 3 m/S 748 mmHg 64%
    22:00 +19°C° 0 mm 2 m/S 748 mmHg 72%
    23:00 +18°C° 0 mm 2 m/S 748 mmHg 79%

    Morgen, 23 Juli, Dienstag

    Zeit Temperatur Niederschläge Wind Luftdruck Luftfeuchtigkeit
    00:00 +18°C° 0 mm 1 m/S 748 mmHg 86%
    01:00 +16°C° 0 mm 2 m/S 748 mmHg 88%
    02:00 +16°C° 0 mm 2 m/S 748 mmHg 89%
    03:00 +16°C° 0 mm 2 m/S 748 mmHg 90%
    04:00 +16°C° 0 mm 2 m/S 748 mmHg 89%
    05:00 +17°C° 0 mm 3 m/S 748 mmHg 88%
    06:00 +17°C° 0 mm 3 m/S 748 mmHg 87%
    07:00 +19°C° 0 mm 3 m/S 748 mmHg 78%
    08:00 +22°C° 0 mm 4 m/S 748 mmHg 68%
    09:00 +25°C° 0 mm 4 m/S 748 mmHg 59%
    10:00 +27°C° 0 mm 4 m/S 748 mmHg 53%
    11:00 +28°C° 0 mm 4 m/S 748 mmHg 47%
    12:00 +30°C° 0 mm 3 m/S 748 mmHg 41%
    13:00 +30°C° 0 mm 3 m/S 747 mmHg 43%
    14:00 +30°C° 0 mm 3 m/S 747 mmHg 45%
    15:00 +30°C° 0 mm 2 m/S 747 mmHg 47%
    16:00 +29°C° 0 mm 2 m/S 746 mmHg 51%
    17:00 +28°C° 0 mm 2 m/S 746 mmHg 55%
    18:00 +28°C° 0 mm 2 m/S 746 mmHg 59%
    19:00 +26°C° 0 mm 2 m/S 746 mmHg 61%
    20:00 +25°C° 0 mm 2 m/S 747 mmHg 63%
    21:00 +22°C° 0 mm 3 m/S 747 mmHg 65%
    22:00 +21°C° 0 mm 3 m/S 747 mmHg 68%
    23:00 +21°C° 0 mm 3 m/S 747 mmHg 71%

    übermorgen, 24 Juli, Mittwoch

    Zeit Temperatur Niederschläge Wind Luftdruck Luftfeuchtigkeit
    00:00 +20°C° 0 mm 3 m/S 747 mmHg 73%
    01:00 +19°C° 0 mm 2 m/S 747 mmHg 76%
    02:00 +18°C° 0 mm 2 m/S 747 mmHg 79%
    03:00 +18°C° 0 mm 2 m/S 747 mmHg 82%
    04:00 +18°C° 0 mm 2 m/S 747 mmHg 81%
    05:00 +18°C° 0 mm 2 m/S 747 mmHg 81%
    06:00 +18°C° 0 mm 2 m/S 747 mmHg 81%
    07:00 +20°C° 0 mm 2 m/S 747 mmHg 74%
    08:00 +24°C° 0 mm 2 m/S 747 mmHg 67%
    09:00 +26°C° 0 mm 2 m/S 747 mmHg 61%
    10:00 +27°C° 0 mm 2 m/S 747 mmHg 55%
    11:00 +28°C° 0 mm 3 m/S 746 mmHg 49%
    12:00 +30°C° 0 mm 3 m/S 746 mmHg 43%
    13:00 +30°C° 0 mm 3 m/S 746 mmHg 44%
    14:00 +30°C° 0 mm 4 m/S 745 mmHg 44%
    15:00 +30°C° 0 mm 4 m/S 745 mmHg 44%
    16:00 +29°C° 0 mm 4 m/S 745 mmHg 50%
    17:00 +28°C° 0 mm 3 m/S 744 mmHg 56%
    18:00 +27°C° 0 mm 3 m/S 744 mmHg 62%
    19:00 +25°C° 0 mm 3 m/S 744 mmHg 70%
    20:00 +23°C° 0 mm 2 m/S 745 mmHg 78%
    21:00 +20°C° 0 mm 2 m/S 745 mmHg 86%
    22:00 +20°C° 0 mm 2 m/S 744 mmHg 89%
    23:00 +19°C° 0 mm 2 m/S 744 mmHg 92%

    25 Juli, Donnerstag

    Zeit Temperatur Niederschläge Wind Luftdruck Luftfeuchtigkeit
    00:00 +18°C° 0 mm 2 m/S 744 mmHg 94%
    01:00 +18°C° 0 mm 2 m/S 744 mmHg 95%
    02:00 +18°C° 0 mm 3 m/S 744 mmHg 95%
    03:00 +18°C° 0 mm 3 m/S 744 mmHg 95%
    04:00 +18°C° 0 mm 3 m/S 744 mmHg 95%
    05:00 +19°C° 0 mm 3 m/S 743 mmHg 95%
    06:00 +19°C° 0 mm 3 m/S 743 mmHg 94%
    07:00 +21°C° 0 mm 4 m/S 743 mmHg 85%
    08:00 +23°C° 0 mm 4 m/S 743 mmHg 75%
    09:00 +26°C° 0 mm 5 m/S 743 mmHg 65%
    10:00 +27°C° 0 mm 5 m/S 743 mmHg 61%
    11:00 +28°C° 0 mm 6 m/S 742 mmHg 57%
    12:00 +29°C° 0 mm 6 m/S 742 mmHg 53%
    13:00 +30°C° 0 mm 6 m/S 742 mmHg 54%
    14:00 +30°C° 0 mm 6 m/S 741 mmHg 54%
    15:00 +30°C° 0 mm 7 m/S 741 mmHg 55%
    16:00 +29°C° 0.3 mm 6 m/S 741 mmHg 60%
    17:00 +28°C° 0.3 mm 6 m/S 741 mmHg 66%
    18:00 +26°C° 0.3 mm 5 m/S 741 mmHg 72%
    19:00 +25°C° 0.3 mm 5 m/S 741 mmHg 77%
    20:00 +23°C° 0.3 mm 5 m/S 741 mmHg 83%
    21:00 +22°C° 0.3 mm 5 m/S 741 mmHg 88%
    22:00 +22°C° 0.1 mm 5 m/S 740 mmHg 88%
    23:00 +22°C° 0.1 mm 5 m/S 740 mmHg 89%

    26 Juli, Freitag

    Zeit Temperatur Niederschläge Wind Luftdruck Luftfeuchtigkeit
    00:00 +22°C° 0.1 mm 5 m/S 740 mmHg 89%
    01:00 +22°C° 0 mm 5 m/S 740 mmHg 89%
    02:00 +22°C° 0 mm 5 m/S 740 mmHg 88%
    03:00 +22°C° 0 mm 5 m/S 740 mmHg 88%
    04:00 +22°C° 0.5 mm 5 m/S 739 mmHg 91%
    05:00 +22°C° 0.5 mm 5 m/S 739 mmHg 93%
    06:00 +21°C° 0.5 mm 5 m/S 739 mmHg 96%
    07:00 +22°C° 0 mm 5 m/S 739 mmHg 92%
    08:00 +23°C° 0 mm 5 m/S 739 mmHg 87%
    09:00 +24°C° 0 mm 6 m/S 739 mmHg 83%
    10:00 +27°C° 0 mm 6 m/S 739 mmHg 73%
    11:00 +28°C° 0 mm 6 m/S 739 mmHg 62%
    12:00 +30°C° 0 mm 6 m/S 739 mmHg 52%
    13:00 +32°C° 0 mm 7 m/S 739 mmHg 48%
    14:00 +32°C° 0 mm 7 m/S 739 mmHg 45%
    15:00 +32°C° 0 mm 7 m/S 739 mmHg 41%
    16:00 +30°C° 0 mm 7 m/S 739 mmHg 46%
    17:00 +29°C° 0 mm 6 m/S 739 mmHg 52%
    18:00 +28°C° 0 mm 6 m/S 739 mmHg 57%
    19:00 +26°C° 0 mm 5 m/S 739 mmHg 63%
    20:00 +25°C° 0 mm 4 m/S 740 mmHg 69%
    21:00 +23°C° 0 mm 4 m/S 740 mmHg 75%
    22:00 +22°C° 0 mm 4 m/S 740 mmHg 77%
    23:00 +22°C° 0 mm 4 m/S 741 mmHg 80%

    27 Juli, Samstag

    Zeit Temperatur Niederschläge Wind Luftdruck Luftfeuchtigkeit
    00:00 +21°C° 0 mm 4 m/S 741 mmHg 82%
    01:00 +21°C° 0 mm 3 m/S 741 mmHg 85%
    02:00 +20°C° 0 mm 3 m/S 741 mmHg 88%
    03:00 +19°C° 0 mm 3 m/S 742 mmHg 90%
    04:00 +19°C° 0 mm 3 m/S 742 mmHg 90%
    05:00 +19°C° 0 mm 3 m/S 742 mmHg 90%
    06:00 +19°C° 0 mm 3 m/S 743 mmHg 90%
    07:00 +21°C° 0 mm 3 m/S 743 mmHg 82%
    08:00 +25°C° 0 mm 3 m/S 743 mmHg 73%
    09:00 +27°C° 0 mm 3 m/S 743 mmHg 65%
    10:00 +28°C° 0 mm 3 m/S 743 mmHg 60%
    11:00 +29°C° 0 mm 3 m/S 743 mmHg 55%
    12:00 +31°C° 0 mm 3 m/S 743 mmHg 50%
    13:00 +31°C° 0 mm 3 m/S 743 mmHg 48%
    14:00 +33°C° 0 mm 4 m/S 743 mmHg 47%
    15:00 +33°C° 0 mm 4 m/S 743 mmHg 45%
    16:00 +32°C° 0 mm 4 m/S 743 mmHg 51%
    17:00 +30°C° 0 mm 3 m/S 742 mmHg 56%
    18:00 +30°C° 0 mm 3 m/S 742 mmHg 61%
    19:00 +28°C° 0 mm 3 m/S 743 mmHg 68%
    20:00 +26°C° 0 mm 3 m/S 743 mmHg 74%
    21:00 +25°C° 0 mm 3 m/S 743 mmHg 80%
    22:00 +24°C° 0 mm 2 m/S 743 mmHg 83%
    23:00 +23°C° 0 mm 2 m/S 743 mmHg 85%
    Mehr zeigen